SCP
0 0 0 0 0 0 0 0 0 0 0 0 0 0 0 0 0 0 0 0 0 0 0 0 0 0 0 0 0 0 0 0 0 0 0 0 0 0 0 0 0 0 0
0 0 0 0 0 0 0 0 0 0 0 0 0 0 0 0 0 0 0 0 0 0 0 0 0 0 0 0 0 0 0 0 0 0 0 0 0 0 0 0 0 0 0
0 0 0 0 0 0 0 0 0 0 0 0 0 0 0 0 0 0 0 0 0 0 0 0 0 0 0 0 0 0 0 0 0 0 0 0 0 0 0 0 0 0 0
0 0 0 0 0 0 0 0 0 0 0 0 0 0 0 0 0 0 0 0 0 0 0 0 0 0 0 0 0 0 0 0 0 0 0 0 0 0 0 0 0 0 0
0 0 0 0 0 0 0 0 0 0 0 0 0 0 0 0 0 0 0 0 0 0 0 0 0 0 0 0 0 0 0 0 0 0 0 0 0 0 0 0 0 0 0
0 0 0 0 0 0 0 0 0 0 0 0 0 0 0 0 0 0 0 0 0 0 0 0 0 0 0 0 0 0 0 0 0 0 0 0 0 0 0 0 0 0 0
0 0 0 0 0 0 0 0 0 0 0 0 0 0 0 0 0 0 0 0 0 0 0 0 0 0 0 0 0 0 0 0 0 0 0 0 0 0 0 0 0 0 0
0 0 0 0 0 0 0 0 0 0 0 0 0 0 0 0 0 0 0 0 0 0 0 0 0 0 0 0 0 0 0 0 0 0 0 0 0 0 0 0 0 0 0
0 0 0 0 0 0 0 0 0 0 0 0 0 0 0 0 0 0 0 0 0 0 0 0 0 0 0 0 0 0 0 0 0 0 0 0 0 0 0 0 0 0 0
0 0 0 0 0 0 0 0 0 0 0 0 0 0 0 0 0 0 0 0 0 0 0 0 0 0 0 0 0 0 0 0 0 0 0 0 0 0 0 0 0 0 0
0 0 0 0 0 0 0 0 0 0 0 0 0 0 0 0 0 0 0 0 0 0 0 0 0 0 0 0 0 0 0 0 0 0 0 0 0 0 0 0 0 0 0
0 0 0 0 0 0 0 0 0 0 0 0 0 0 0 0 0 0 0 0 0 0 0 0 0 0 0 0 0 0 0 0 0 0 0 0 0 0 0 0 0 0 0
0 0 0 0 0 0 0 0 0 0 0 0 0 0 0 0 0 0 0 0 0 0 0 0 0 0 0 0 0 0 0 0 0 0 0 0 0 0 0 0 0 0 0
0 0 0 0 0 0 0 0 0 0 0 0 0 0 0 0 0 0 0 0 0 0 0 0 0 0 0 0 0 0 0 0 0 0 0 0 0 0 0 0 0 0 0
0 0 0 0 0 0 0 0 0 0 0 0 0 0 0 0 0 0 0 0 0 0 0 0 0 0 0 0 0 0 0 0 0 0 0 0 0 0 0 0 0 0 0
0 0 0 0 0 0 0 0 0 0 0 0 0 0 0 0 0 0 0 0 0 0 0 0 0 0 0 0 0 0 0 0 0 0 0 0 0 0 0 0 0 0 0
0 0 0 0 0 0 0 0 0 0 0 0 0 0 0 0 0 0 0 0 0 0 0 0 0 0 0 0 0 0 0 0 0 0 0 0 0 0 0 0 0 0 0
0 0 0 0 0 0 0 0 0 0 0 0 0 0 0 0 0 0 0 0 0 0 0 0 0 0 0 0 0 0 0 0 0 0 0 0 0 0 0 0 0 0 0
0 0 0 0 0 0 0 0 0 0 0 0 0 0 0 0 0 0 0 0 0 0 0 0 0 0 0 0 0 0 0 0 0 0 0 0 0 0 0 0 0 0 0
0 0 0 0 0 0 0 0 0 0 0 0 0 0 0 0 0 0 0 0 0 0 0 0 0 0 0 0 0 0 0 0 0 0 0 0 0 0 0 0 0 0 0
0 0 0 0 0 0 0 0 0 0 0 0 0 0 0 0 0 0 0 0 0 0 0 0 0 0 0 0 0 0 0 0 0 0 0 0 0 0 0 0 0 0 0
0 0 0 0 0 0 0 0 0 0 0 0 0 0 0 0 0 0 0 0 0 0 0 0 0 0 0 0 0 0 0 0 0 0 0 0 0 0 0 0 0 0 0
0 0 0 0 0 0 0 0 0 0 0 0 0 0 0 0 0 0 0 0 0 0 0 0 0 0 0 0 0 0 0 0 0 0 0 0 0 0 0 0 0 0 0
0 0 0 0 0 0 0 0 0 0 0 0 0 0 0 0 0 0 0 0 0 0 0 0 0 0 0 0 0 0 0 0 0 0 0 0 0 0 0 0 0 0 0
0 0 0 0 0 0 0 0 0 0 0 0 0 0 0 0 0 0 0 0 0 0 0 0 0 0 0 0 0 0 0 0 0 0 0 0 0 0 0 0 0 0 0
0 0 0 0 0 0 0 0 0 0 0 0 0 0 0 0 0 0 0 0 0 0 0 0 0 0 0 0 0 0 0 0 0 0 0 0 0 0 0 0 0 0 0
Wind_Speed
7 5 6 5 5 5 5 4 3 3 2 2 1 1 1 1 1 1 2 2 2 2 2 3 4 3 3 2 2 2 3 3 3 3 2 2 2 2 2 3 4 4 5
6 6 6 5 5 5 4 4 3 3 3 2 2 2 2 2 2 1 1 1 2 3 3 3 3 3 3 2 2 3 2 3 3 3 2 2 3 3 3 3 3 4 4
6 6 7 7 6 6 5 5 5 4 4 3 3 4 3 3 3 2 1 1 1 1 2 3 3 3 3 2 3 2 2 2 2 2 2 1 2 1 1 2 2 2 3
7 7 8 7 7 6 6 6 6 5 5 5 5 4 3 3 3 3 2 2 2 1 1 1 2 4 4 3 3 2 2 1 1 1 1 1 1 1 1 1 2 2 2
8 8 8 7 7 7 7 8 7 7 8 6 6 6 5 4 5 4 2 2 2 2 2 1 1 3 4 3 3 3 3 2 1 1 0 1 1 1 1 1 2 1 1
8 8 8 8 8 8 7 7 7 7 7 7 7 7 7 6 9 8 4 2 2 2 2 2 1 2 1 2 3 4 4 3 2 2 1 0 1 1 1 1 1 0 1
7 7 7 7 8 7 7 8 7 7 7 7 7 6 6 8 12 11 9 3 3 2 1 1 1 2 2 1 1 2 1 2 3 3 2 1 1 1 0 0 0 1 1
6 6 6 7 7 7 7 7 6 5 5 6 6 6 6 10 15 13 10 6 4 4 3 2 2 2 2 2 2 2 0 1 0 2 2 1 1 1 1 1 1 1 1
5 5 5 6 6 7 7 6 5 5 5 5 5 6 7 9 15 14 11 4 4 5 4 3 3 2 3 3 4 3 2 2 2 3 3 2 3 3 2 2 2 2 2
4 4 4 5 6 6 6 5 5 5 5 5 6 6 7 7 14 15 11 3 4 3 3 4 5 4 4 4 3 4 3 1 2 3 3 4 4 4 4 2 2 2 1
3 4 5 5 5 6 6 5 5 6 6 6 6 6 7 8 12 15 12 4 3 3 3 3 3 6 6 6 4 3 3 3 3 3 3 3 3 3 3 3 2 1 2
4 5 5 6 5 6 6 6 6 6 6 6 6 6 6 7 9 12 14 11 6 3 3 2 3 7 8 8 5 6 7 6 4 4 4 3 3 3 3 3 4 4 3
5 4 4 5 5 5 6 6 5 5 5 5 5 5 5 6 8 14 14 13 11 5 4 7 9 10 9 8 10 10 7 5 4 4 4 3 2 2 3 3 4 4 5
5 4 4 4 5 5 5 5 5 5 5 5 5 5 5 5 6 6 6 6 8 7 5 8 11 13 9 9 9 8 6 5 4 4 3 3 3 4 4 3 3 3 4
4 3 3 3 4 4 4 4 4 3 3 3 2 3 4 5 7 9 6 5 4 5 4 6 6 6 7 7 6 6 6 5 5 4 4 4 4 4 4 3 3 4 4
4 3 2 2 2 2 3 3 5 4 5 6 5 4 3 6 8 11 13 13 12 10 8 7 7 6 6 6 6 6 6 5 4 4 4 4 4 4 4 4 4 4 4
4 3 2 3 3 3 2 2 1 3 4 5 6 7 8 9 10 10 11 13 13 11 8 6 6 5 5 5 5 5 4 4 4 4 4 4 4 4 4 4 4 4 4
3 3 3 3 3 3 3 2 2 1 1 2 4 6 7 9 10 10 9 8 7 7 5 5 5 4 4 4 4 4 4 4 4 4 4 4 4 3 4 4 3 3 3
3 2 2 2 2 2 2 2 2 2 1 1 2 3 5 6 9 10 8 5 4 4 4 4 4 4 4 4 3 3 4 4 4 4 4 4 3 3 3 3 3 4 3
2 4 4 2 1 1 2 2 2 2 2 1 1 0 1 3 3 4 4 3 3 3 3 3 3 3 3 3 3 3 4 4 4 4 3 3 3 3 3 4 3 3 2
3 3 3 2 2 2 2 3 3 3 3 2 2 2 2 2 2 2 2 2 2 2 2 2 2 2 3 2 3 3 4 3 3 3 3 2 2 3 3 3 3 3 2
2 2 2 2 2 2 3 3 4 4 4 4 2 1 3 2 2 2 1 1 1 1 1 1 1 1 1 1 2 2 2 2 3 3 3 2 2 2 2 3 3 3 3
2 3 3 3 3 4 3 3 3 4 4 4 4 3 2 2 2 2 2 2 1 1 1 1 1 1 1 1 1 1 1 1 1 2 2 2 2 2 2 2 2 3 3
2 2 3 3 4 4 4 3 4 4 4 4 4 4 4 4 3 4 3 2 2 2 1 1 1 2 3 2 1 1 0 1 1 1 1 1 2 2 2 2 2 2 2
2 2 3 4 4 4 4 4 4 4 4 5 5 4 4 4 4 4 4 3 3 3 3 2 2 2 3 3 2 0 1 1 1 0 1 2 2 2 2 2 2 2 2
3 3 3 3 4 4 4 5 5 5 5 5 5 5 5 5 5 5 4 4 4 3 3 3 4 4 4 3 2 1 1 2 2 2 3 2 3 2 2 2 2 2 2
Wind_Direction
26 31 38 39 44 55 57 53 56 64 60 57 60 41 346 312 295 208 210 201 191 211 203 193 205 188 185 189 179 172 176 172 211 260 261 256 242 234 202 198 205 212 222
20 30 36 35 41 49 46 36 33 33 36 40 45 46 27 16 18 10 264 211 195 208 212 205 216 198 192 191 181 188 189 188 194 237 267 252 241 234 220 216 215 216 216
21 29 32 29 31 35 30 27 30 33 38 41 54 59 48 42 34 14 345 351 309 234 216 203 204 183 192 190 181 183 192 189 187 207 251 264 265 246 223 240 239 243 240
25 31 32 27 28 31 30 30 31 34 43 49 57 63 63 59 45 26 19 27 359 328 292 195 183 174 178 173 166 170 162 155 170 190 242 278 276 272 201 241 264 248 254
34 35 31 28 31 36 38 40 41 48 56 55 55 49 46 50 36 24 22 39 29 29 29 43 158 163 172 167 158 161 147 136 123 123 220 315 303 292 248 237 245 274 266
38 33 30 33 37 37 39 42 46 50 54 58 57 51 44 37 30 30 26 26 45 52 31 18 74 104 132 148 150 156 156 153 156 150 166 230 279 270 264 230 211 102 303
37 33 32 36 37 33 40 46 46 47 52 54 51 47 40 27 33 34 37 43 47 57 61 51 70 74 90 88 94 106 118 148 164 154 161 209 243 261 218 104 153 162 234
37 33 32 36 35 31 37 40 39 41 48 49 45 39 34 29 33 34 38 41 48 45 45 64 89 70 83 119 121 115 89 7 167 147 158 190 216 219 152 142 133 85 44
38 36 34 39 39 35 33 29 28 40 42 40 39 36 33 20 28 34 40 36 49 42 37 45 66 71 61 111 123 120 94 26 53 112 123 103 77 88 99 80 60 61 36
39 45 45 46 47 41 35 33 33 45 44 44 42 34 30 19 22 31 37 41 47 37 31 29 41 54 62 90 118 127 123 118 84 82 67 48 43 43 54 75 103 89 77
61 58 49 49 54 48 43 39 40 46 46 43 41 31 25 17 16 24 32 40 43 41 36 25 19 40 60 72 84 101 119 128 105 95 76 55 42 35 30 32 54 101 100
81 68 56 46 50 50 49 41 38 41 43 34 30 24 15 8 11 16 28 38 44 56 40 18 22 46 60 61 63 77 91 95 92 86 75 58 46 32 25 35 46 56 65
96 82 74 63 51 47 50 45 39 35 40 32 29 25 9 3 5 16 24 32 38 51 49 52 57 56 57 54 52 61 69 76 83 82 76 57 37 31 36 43 44 53 51
116 110 94 82 64 49 45 44 47 37 35 33 30 21 7 4 5 3 8 21 31 44 46 50 56 57 57 52 49 49 50 59 76 77 73 55 39 40 38 37 47 44 50
125 127 112 100 95 74 59 46 48 37 32 40 24 11 12 9 360 16 32 30 34 46 57 53 49 47 49 45 44 43 41 44 51 49 58 58 50 48 37 31 47 55 61
124 136 139 135 125 114 102 62 30 30 32 43 45 39 8 19 30 43 47 46 49 57 66 61 55 51 50 47 46 42 39 38 37 47 54 56 57 57 50 43 52 65 66
141 151 153 157 165 172 167 145 79 357 10 25 31 35 38 38 46 51 55 51 46 52 63 60 55 50 48 47 46 47 40 29 36 47 54 53 56 56 57 54 57 63 61
145 149 148 163 176 184 191 189 176 163 8 348 359 20 34 44 49 53 55 58 47 43 51 55 50 44 44 45 43 42 40 36 39 43 45 47 51 58 58 56 57 68 67
152 155 156 165 171 171 171 163 159 156 132 44 9 12 30 49 50 49 52 62 65 55 48 47 43 41 40 41 42 43 44 41 39 41 40 42 47 60 61 58 63 67 69
185 188 173 167 164 157 154 147 142 144 141 132 101 9 16 52 49 35 41 57 69 68 60 53 42 41 37 39 45 48 46 41 37 39 35 39 46 60 68 66 66 68 63
201 211 196 168 175 177 167 166 167 165 168 178 207 219 156 118 111 94 77 73 86 92 87 70 51 40 36 41 52 58 57 42 32 32 34 39 51 62 66 69 66 66 68
203 215 212 205 205 196 184 177 174 178 184 189 207 207 158 131 139 141 144 139 132 129 129 111 79 46 39 61 80 78 65 44 24 19 29 41 58 70 74 71 65 60 66
221 225 223 222 212 206 194 188 186 190 195 198 196 192 186 181 180 181 187 185 172 158 144 126 110 85 65 70 75 98 101 50 343 354 34 52 63 73 81 81 79 74 65
242 233 224 220 212 208 209 210 204 202 201 199 196 193 194 195 192 190 188 186 182 183 175 160 162 161 144 122 92 76 7 285 294 313 53 110 102 92 86 83 78 81 80
267 251 237 222 214 214 217 218 213 209 204 201 197 195 193 191 191 189 185 186 186 192 189 176 166 159 157 151 147 163 332 359 4 149 119 115 118 117 109 101 87 74 80
271 261 248 231 220 215 213 216 216 211 208 206 199 193 191 191 192 190 185 184 188 193 190 188 188 181 172 163 156 125 51 28 47 121 130 115 115 119 121 111 107 90 89